Theta_e
339 339 340 341 341 343 343 344 344 345 346 346 345 345 344 343 344 343 344 344 345 345 344 343 342 342 342 343 342 342 340 338 334 329 326 327 327 327 328 328 329 330 330 331 330 331 331 331 331 331 330 330 329 329 328 327 326 326 325 324 323 323 323 323 324 324 323 322 320 320 320 320 320 320 320 320 320 321 321 322 323 324 325 325 324
340 340 341 343 343 343 344 344 345 345 347 347 346 346 346 346 346 345 345 346 346 346 346 344 343 342 343 344 343 342 342 342 340 334 330 330 330 329 329 330 330 330 330 331 332 332 331 331 330 329 329 328 327 326 326 325 324 323 322 322 321 320 320 320 320 320 320 320 320 320 320 320 320 320 320 320 320 321 321 321 321 321 321 322 322
342 342 343 344 344 345 344 344 344 345 346 347 347 347 347 347 347 347 346 347 347 346 347 347 345 345 345 345 345 344 343 342 343 339 332 330 329 329 330 330 331 331 331 331 330 330 330 329 328 327 327 326 326 325 325 325 325 324 323 323 322 322 321 321 320 320 320 321 321 321 321 321 321 321 321 321 322 321 322 321 321 321 321 321 321
344 344 344 344 345 344 344 343 344 345 346 347 347 347 347 348 347 347 346 346 347 347 347 347 346 346 345 346 345 344 343 342 343 342 337 333 331 331 331 331 330 330 330 329 329 329 328 329 328 328 327 327 327 327 326 326 326 326 325 325 325 324 323 323 323 322 322 322 323 323 323 323 323 324 324 325 326 326 327 328 328 328 327 327 325
344 345 345 345 346 345 345 343 343 345 346 347 347 347 347 348 347 347 347 347 346 347 347 346 346 346 346 346 346 344 343 343 343 343 341 337 334 334 335 335 333 333 332 330 330 331 331 331 329 329 329 328 328 327 328 328 328 328 327 327 326 325 325 325 325 325 325 325 326 326 326 327 328 330 332 334 335 337 338 338 338 339 338 337 337
345 345 346 345 346 346 345 344 344 344 344 346 346 347 347 347 347 347 346 347 347 346 346 346 346 346 347 347 347 345 344 343 343 343 341 339 337 336 337 338 340 341 340 337 336 335 334 334 330 329 329 328 328 328 328 328 327 327 327 327 327 327 326 327 327 328 329 330 331 332 334 336 338 339 341 342 344 344 344 345 345 345 344 344 344
345 346 346 346 346 346 345 344 344 344 345 346 346 347 347 347 348 347 347 346 346 347 346 346 346 346 346 347 347 345 345 344 343 343 342 341 341 338 337 340 343 345 345 344 344 342 338 336 332 330 331 329 328 329 328 329 328 329 329 330 331 331 332 333 334 335 336 337 338 340 341 343 344 344 345 345 346 345 346 346 347 346 345 346 346
346 347 346 346 346 345 344 343 343 345 346 346 346 347 348 347 347 347 347 347 346 346 346 346 345 345 346 347 347 346 346 345 343 344 343 343 344 343 341 342 343 342 344 345 347 346 341 339 336 333 332 331 332 336 337 336 336 336 337 338 338 339 340 340 341 341 342 343 343 343 344 345 345 345 345 345 345 345 345 346 347 348 348 348 348
345 346 346 345 345 344 343 343 344 345 347 347 346 347 347 346 346 347 347 347 347 346 346 347 346 346 346 346 346 346 347 345 344 344 343 342 344 345 345 345 343 342 342 344 347 348 344 343 340 337 336 335 338 343 344 345 345 345 344 344 344 344 344 344 343 343 343 344 344 344 344 344 345 345 345 345 344 344 345 347 348 349 349 350 350
345 346 346 347 346 344 344 344 344 345 346 346 346 347 347 346 346 347 347 346 346 346 346 346 346 347 346 345 346 347 347 345 344 344 343 341 342 344 344 344 345 344 342 342 346 348 347 346 342 338 337 337 341 344 347 349 350 350 350 350 350 349 347 345 344 344 343 343 343 343 344 344 344 344 344 343 343 344 345 348 349 350 351 352 352
346 347 348 348 346 344 343 343 345 345 345 345 346 346 346 346 347 347 347 347 346 346 346 346 346 347 345 344 345 345 346 345 342 343 342 341 342 344 344 344 344 345 345 342 343 346 347 347 341 336 336 338 341 346 349 351 351 352 352 352 351 348 345 343 342 343 342 342 342 342 343 343 343 343 343 343 344 346 348 349 351 352 352 353 353
348 349 349 347 345 344 343 344 345 345 344 344 344 345 346 346 347 347 347 347 346 346 346 345 346 346 344 344 345 344 344 343 342 342 343 342 342 344 344 344 343 344 346 345 345 345 346 347 340 334 339 342 345 349 351 351 352 352 351 348 345 342 339 338 338 340 340 341 341 342 342 342 342 343 344 345 347 348 350 351 352 353 353 353 353
348 348 348 347 344 344 344 343 343 344 345 345 343 343 346 347 347 347 347 347 347 347 346 345 345 345 344 345 346 345 343 342 343 342 343 343 343 344 344 344 344 345 345 346 347 346 345 347 343 338 343 346 348 351 351 352 352 351 346 341 338 337 336 335 337 339 341 342 342 343 344 344 345 346 347 349 350 351 351 352 352 352 353 353 352
348 347 347 346 345 344 344 343 343 343 345 347 344 342 344 347 348 347 347 347 347 346 345 345 344 344 344 345 345 345 344 344 344 343 342 343 343 344 344 343 344 344 345 345 346 345 343 346 347 344 344 346 348 351 352 352 351 347 340 336 336 336 335 335 338 341 343 344 345 346 347 347 348 349 350 351 351 351 351 352 352 351 351 351 349
345 347 347 346 345 344 344 343 343 344 346 346 345 344 344 345 346 348 347 347 346 346 346 346 344 344 345 346 345 345 344 344 344 343 342 342 343 343 343 343 343 342 343 343 343 343 342 344 347 347 346 345 346 349 353 353 350 345 338 336 336 335 335 337 341 343 343 345 346 347 348 349 349 349 350 351 350 350 350 348 346 345 344 342 341
343 345 346 345 344 345 345 344 344 346 346 345 344 344 344 344 346 347 347 346 346 346 346 346 345 346 347 347 347 346 345 345 344 344 343 343 342 342 342 343 342 341 341 341 341 342 342 342 346 348 348 347 345 346 351 352 348 341 336 335 335 334 336 340 342 343 344 345 346 347 348 348 349 349 348 347 345 343 340 337 335 333 332 331 330
343 344 345 345 344 344 345 345 344 345 345 343 343 343 344 346 348 347 347 346 346 346 346 346 345 347 348 347 346 346 346 345 345 343 344 344 342 340 340 342 342 341 342 341 342 342 341 343 345 346 347 348 347 345 346 347 343 336 333 335 335 334 337 341 343 345 346 346 347 347 347 347 345 342 339 336 334 331 329 327 326 326 325 325 324
344 344 344 344 343 343 345 345 343 344 344 343 343 343 344 346 348 347 347 346 346 346 346 346 347 347 347 346 346 345 345 346 344 343 343 343 342 340 339 342 343 343 344 343 343 342 341 343 345 346 347 348 348 345 341 340 336 331 332 333 333 335 337 340 342 344 347 346 345 344 343 341 337 332 330 329 329 327 326 324 323 323 323 323 322
344 345 345 343 343 343 344 344 343 344 344 343 343 345 346 345 346 348 347 347 347 346 346 347 348 347 347 348 346 346 347 346 345 344 344 343 342 341 340 343 343 343 345 345 344 343 339 342 344 344 346 347 347 344 339 337 332 328 331 331 332 335 335 338 341 343 345 343 341 338 337 335 332 330 331 332 332 328 324 324 323 323 323 323 323
345 345 344 344 343 343 343 343 343 343 344 344 344 345 346 346 347 348 348 347 347 346 345 346 347 347 347 347 346 347 346 346 346 346 345 344 343 342 341 342 343 344 345 345 345 343 341 343 345 344 346 346 347 346 339 335 331 327 330 330 331 333 331 333 338 339 342 341 338 336 335 334 335 336 337 337 335 330 325 323 324 323 323 323 323
346 345 344 344 343 342 343 343 343 343 344 345 346 346 347 346 346 348 349 348 347 346 346 346 347 347 348 348 345 345 346 345 346 347 346 346 345 343 342 342 343 343 343 345 345 344 343 344 345 346 348 347 349 349 339 333 330 326 329 330 330 331 330 330 333 335 337 337 339 339 338 339 340 342 343 342 340 335 328 324 323 324 323 323 323
345 346 345 344 343 342 343 344 344 343 345 347 347 347 348 347 346 346 346 347 346 347 346 345 347 347 347 347 344 344 346 344 345 347 347 347 347 347 344 343 342 342 343 345 345 344 343 343 344 347 349 348 349 349 339 332 331 328 330 333 332 332 331 331 331 331 333 334 335 338 339 340 342 344 345 345 345 343 336 328 324 324 323 323 323
347 347 345 344 344 343 343 344 344 344 345 348 348 347 348 348 345 343 345 345 346 348 347 346 347 347 345 345 344 344 346 345 345 347 347 347 348 348 346 343 344 344 344 343 344 344 343 343 344 346 349 350 350 348 338 333 334 333 333 337 336 334 333 334 334 335 338 340 339 337 335 336 339 341 342 343 344 346 344 337 329 324 324 324 323
348 347 346 345 344 343 342 343 344 344 344 347 348 348 348 346 342 341 342 342 344 346 346 346 347 346 346 346 346 345 346 346 346 345 346 346 346 348 348 344 345 346 343 340 341 344 344 344 345 347 349 350 350 347 340 336 337 335 336 340 340 337 335 334 337 340 345 348 348 344 338 334 334 335 337 340 341 343 346 345 338 329 324 324 324
348 346 344 344 344 343 343 342 343 345 345 347 349 348 347 344 340 340 341 341 343 342 342 345 347 347 348 348 348 347 347 347 348 346 348 347 346 347 348 347 348 347 344 340 340 343 344 343 345 348 349 350 349 347 344 343 341 337 336 338 339 339 338 337 337 342 347 349 351 351 345 339 337 335 334 335 337 339 341 345 345 338 329 324 324
347 346 344 345 344 344 344 344 343 345 347 347 349 348 346 343 341 342 343 342 342 341 340 344 347 347 348 349 348 349 348 348 348 348 348 348 348 348 348 348 349 347 344 343 343 342 343 345 347 348 350 350 349 349 348 348 346 342 338 336 337 337 339 341 339 342 347 348 350 353 350 345 343 341 336 334 334 334 336 340 345 344 336 328 324
345 347 346 345 345 344 344 345 345 345 346 347 347 348 348 346 344 343 342 341 341 342 342 344 347 347 347 349 349 349 349 349 349 349 350 349 350 350 349 348 349 348 347 345 344 343 343 346 347 346 350 351 350 351 351 351 349 347 343 339 337 335 338 343 343 344 348 349 349 353 353 349 346 345 342 338 336 335 333 335 340 344 342 335 327
344 347 347 345 345 345 342 343 345 345 345 347 347 348 348 348 348 345 343 341 340 341 342 343 348 349 349 349 349 349 349 350 350 350 351 351 351 351 351 350 348 348 349 346 344 345 347 348 347 347 351 352 352 353 352 351 351 350 347 344 339 335 336 343 347 348 350 350 350 352 353 350 349 348 345 343 342 340 336 334 334 339 342 340 334
343 345 346 345 345 346 344 341 343 344 344 346 347 347 347 348 349 346 345 343 342 342 342 343 348 350 350 350 350 349 349 349 350 350 351 352 351 351 352 351 348 347 349 349 347 348 348 349 348 350 352 351 351 353 353 352 352 351 349 346 343 338 335 342 348 349 350 350 350 353 353 350 351 349 347 346 346 346 343 338 333 334 336 339 339
345 345 347 347 345 347 347 344 342 342 343 344 344 345 346 347 348 346 346 345 345 344 344 346 350 351 350 351 350 349 350 350 350 350 352 351 351 351 350 349 347 345 346 348 348 349 350 350 349 349 351 349 350 352 352 351 352 353 351 348 347 344 337 339 345 346 349 350 350 353 353 351 351 351 349 349 349 349 348 344 340 337 335 335 338
346 348 348 348 346 347 348 346 342 340 341 343 343 344 345 346 346 345 345 346 346 344 344 346 350 352 351 352 352 350 349 350 349 349 351 351 351 350 346 345 345 344 343 343 343 342 344 347 347 346 346 346 348 350 351 351 351 353 353 351 351 347 339 338 341 343 344 346 349 352 353 351 352 352 351 351 351 350 349 348 346 342 340 337 335
347 349 350 351 349 348 347 347 344 340 340 341 342 342 343 345 346 345 345 346 346 346 346 346 349 352 353 354 354 353 351 350 349 349 350 350 351 349 346 343 345 347 347 345 342 339 340 343 342 340 340 341 343 346 348 350 352 353 353 353 352 347 338 337 340 340 339 342 346 349 350 351 352 353 352 352 352 351 350 349 348 345 344 343 338
349 351 351 351 351 351 350 348 345 342 340 340 340 341 341 343 344 344 345 345 346 347 347 346 346 350 354 354 355 355 354 352 350 349 349 350 349 348 348 348 349 350 350 350 349 346 343 345 344 342 341 340 339 339 341 343 344 347 350 350 347 342 338 338 338 336 337 341 339 337 338 341 347 351 354 353 353 352 350 348 348 347 346 346 344
350 351 351 351 352 352 351 349 346 343 341 340 340 340 339 340 341 343 345 346 346 345 345 345 345 348 351 353 353 354 354 352 349 348 348 350 350 349 350 351 351 350 351 351 351 350 347 347 347 345 343 340 335 333 333 333 334 337 340 341 340 341 342 342 340 338 338 336 331 329 329 330 337 346 352 354 353 353 350 347 346 347 347 349 348
349 350 350 351 352 353 352 350 348 345 341 339 340 340 339 338 338 340 342 344 345 346 344 344 344 345 347 350 353 354 354 352 349 346 346 347 348 349 350 351 350 349 350 351 351 350 349 348 347 345 344 339 335 332 331 333 335 336 334 335 339 344 345 344 343 341 338 333 330 330 332 329 330 338 347 352 354 352 347 345 344 346 348 350 350
349 349 350 350 350 351 351 350 349 348 345 340 339 339 339 338 338 338 339 340 341 343 343 343 344 344 344 345 348 350 350 349 346 344 344 347 348 349 350 351 350 350 350 350 349 349 349 348 347 347 344 339 335 334 335 335 336 336 333 336 342 345 346 346 346 343 340 338 337 337 338 335 331 331 335 342 347 348 344 341 343 346 350 352 352
350 351 350 350 349 348 347 348 348 348 349 346 342 340 339 340 339 337 337 337 338 338 339 340 341 342 342 342 343 344 344 344 342 341 343 345 348 348 347 348 349 350 350 350 350 349 349 349 347 344 340 336 334 333 334 334 333 332 332 336 342 345 345 346 347 347 346 343 342 342 342 340 338 333 331 332 337 341 341 341 343 347 351 352 352
349 351 351 351 351 349 347 347 347 348 349 349 347 345 344 344 343 340 338 336 336 336 336 336 336 338 339 340 340 340 339 339 338 339 340 342 345 345 344 343 344 347 347 348 348 348 347 347 344 340 336 334 333 331 331 332 330 329 329 332 337 340 341 343 345 348 347 344 343 344 344 343 341 338 334 332 333 335 338 340 344 348 351 352 353
347 349 350 351 351 350 349 348 347 346 347 347 348 348 349 348 347 346 343 339 336 336 335 335 334 334 336 337 337 337 337 337 336 337 338 339 339 339 338 339 339 340 340 340 341 342 343 342 340 337 333 330 329 328 328 328 328 328 328 330 331 332 334 339 342 344 345 343 342 344 345 345 343 339 335 334 333 334 337 340 343 348 351 352 353
347 348 349 350 350 350 349 348 348 347 346 345 346 347 349 349 348 348 346 343 340 338 337 336 334 334 333 334 335 335 336 336 336 336 335 334 334 334 337 339 340 339 338 338 338 338 338 337 334 331 329 327 326 325 325 326 326 326 326 327 327 327 330 333 335 339 343 344 345 345 346 346 342 337 336 335 334 335 335 338 342 347 350 351 352
348 348 348 349 350 349 349 349 348 348 347 346 345 345 345 346 345 346 345 343 342 340 339 338 337 337 335 333 333 334 334 335 335 335 333 333 337 339 341 343 343 343 343 341 339 338 336 335 334 332 332 329 326 325 325 325 325 325 325 325 325 325 327 328 327 331 336 339 343 344 344 345 340 336 335 335 334 335 335 336 342 347 348 350 351
347 348 348 349 349 349 349 349 349 349 348 346 345 345 344 344 342 343 342 341 340 340 340 341 340 340 339 336 334 332 333 334 334 334 332 334 339 342 343 343 343 343 343 342 339 338 337 337 337 336 336 333 328 327 327 326 326 327 326 325 326 324 325 326 326 327 329 333 338 340 339 339 339 336 334 335 335 334 334 337 343 346 347 348 349
346 347 349 349 349 349 348 349 349 349 348 347 345 345 345 344 344 343 342 340 338 337 337 338 339 340 341 341 339 336 334 333 332 331 331 331 333 336 339 342 343 343 342 341 339 338 338 339 338 338 339 337 333 331 329 328 327 329 328 326 326 326 327 327 327 329 331 333 336 337 335 336 337 336 335 335 335 335 336 340 345 348 347 348 348
347 348 350 350 350 349 348 348 348 349 348 348 347 347 346 346 345 346 345 344 342 338 336 336 336 335 336 338 340 339 337 334 333 332 332 331 332 334 337 340 341 341 340 339 339 339 340 340 339 340 340 339 338 333 330 330 330 329 329 328 328 331 333 332 332 334 335 335 335 337 337 336 336 337 337 335 336 337 341 345 346 346 347 347 347
347 349 352 351 350 349 349 348 347 347 347 347 348 348 347 347 348 347 347 347 347 345 343 341 339 338 337 336 336 336 335 335 334 334 334 335 336 339 340 340 340 340 340 340 341 341 341 341 342 341 340 341 340 334 329 332 333 331 331 333 335 339 340 339 339 339 338 338 340 341 341 338 337 338 338 336 337 339 343 346 344 343 346 347 347
348 349 352 352 350 349 349 348 348 347 346 346 347 347 347 347 348 348 349 349 349 349 348 347 346 345 343 342 340 339 337 336 335 335 334 335 336 338 339 339 338 338 340 341 341 341 342 343 343 341 337 335 336 332 328 333 335 334 334 336 341 343 342 340 341 340 338 339 343 345 344 340 338 340 339 337 339 339 340 343 344 343 345 347 348
351 351 352 353 351 349 348 347 348 347 347 346 347 347 348 348 348 349 349 350 350 350 349 349 348 347 346 345 344 344 343 342 341 339 337 336 335 336 338 338 338 337 337 338 337 337 338 337 338 336 333 332 333 332 330 332 335 335 336 339 342 343 341 341 342 340 337 337 341 346 346 342 340 342 340 338 339 339 337 339 341 343 345 346 347
353 352 353 354 353 350 348 347 346 346 347 347 347 348 348 349 350 350 350 350 350 351 351 350 349 349 347 347 346 345 344 343 343 343 342 341 340 339 340 340 339 339 338 338 337 337 337 337 336 337 335 334 333 332 332 333 334 335 337 339 340 340 342 345 344 340 337 335 338 345 348 344 340 341 341 339 339 338 335 335 338 342 344 344 346
352 352 353 353 354 352 350 348 347 346 346 346 347 347 348 348 349 349 349 348 348 348 348 349 349 349 348 348 347 347 345 345 344 343 343 344 343 342 343 342 342 341 341 341 340 339 338 337 338 338 337 335 334 333 334 335 336 337 339 340 341 341 344 347 346 342 338 336 336 343 347 343 338 341 342 340 339 338 335 334 337 341 343 344 346
350 352 352 352 353 353 353 351 349 348 347 347 348 348 348 347 346 346 346 346 346 346 346 347 347 348 348 348 348 348 347 346 346 346 345 344 343 344 344 345 345 345 346 346 346 344 343 342 341 340 339 338 338 338 339 341 342 342 342 343 344 345 346 347 347 345 343 338 335 340 345 342 339 341 343 341 339 336 335 335 336 338 341 344 346
348 348 349 350 350 351 351 352 351 351 350 349 350 350 349 349 348 348 348 347 347 347 347 347 347 348 348 348 350 351 349 348 348 348 348 346 345 345 346 346 347 348 349 350 350 349 349 348 347 346 346 345 345 345 345 347 348 347 347 347 349 349 348 347 346 347 346 340 334 338 342 342 340 341 342 344 343 339 334 334 335 336 339 342 344
Wind_Speed
16 16 16 16 16 16 15 15 15 15 15 15 15 15 15 14 14 13 12 11 8 8 8 7 5 4 4 4 6 6 8 11 11 9 7 6 6 5 5 5 5 5 5 5 5 5 5 5 5 5 6 6 6 6 6 6 6 5 5 5 5 5 5 5 5 6 6 6 6 6 6 6 6 6 6 6 6 6 6 7 7 8 8 8 8
15 15 15 15 15 14 13 14 15 15 15 14 14 14 14 13 12 11 10 9 7 6 7 7 5 5 6 7 8 8 9 11 11 8 7 7 6 6 6 6 6 6 6 6 6 6 6 6 7 7 7 7 7 8 7 7 6 6 6 5 5 5 5 5 5 5 5 5 5 6 6 6 6 6 6 6 6 7 7 7 8 8 9 9 9
13 13 14 13 13 12 13 15 15 16 16 15 15 14 13 12 10 9 8 8 7 7 5 6 5 5 7 8 8 8 9 10 11 9 6 6 6 6 6 7 6 7 7 7 7 7 8 8 9 9 9 9 8 8 7 7 7 6 7 6 6 5 5 5 5 5 5 5 5 6 6 6 6 7 7 7 8 8 8 9 9 9 10 10 10
12 12 13 12 12 12 13 15 15 16 16 15 15 14 13 11 10 9 8 7 7 8 6 5 5 4 5 6 6 7 7 8 8 9 8 6 6 6 7 8 8 8 9 9 9 10 10 11 10 10 9 9 8 8 7 7 7 7 7 6 6 6 6 6 5 6 6 6 6 7 7 7 8 8 9 9 9 10 10 10 10 10 10 10 11
12 12 12 12 13 12 13 14 14 15 15 14 14 13 12 10 10 9 8 8 6 7 7 6 6 4 3 4 5 5 6 6 6 8 8 6 4 5 6 8 10 11 12 12 12 12 13 12 11 10 9 8 8 8 8 7 7 8 7 7 7 7 7 7 7 7 8 8 8 8 8 8 9 9 10 10 11 11 11 11 11 11 11 11 11
14 13 12 12 13 12 12 13 13 14 14 12 12 12 11 9 9 8 8 8 6 5 6 6 6 5 4 3 2 4 5 4 5 7 8 6 5 5 6 8 10 12 13 14 13 12 12 13 12 11 10 9 9 9 9 9 9 9 9 9 9 9 8 8 9 9 9 9 9 9 9 10 10 10 11 11 11 11 11 12 12 12 12 13 13
13 13 12 12 11 11 12 13 13 14 13 11 12 13 12 10 9 9 9 9 8 7 6 5 6 5 3 4 1 2 4 4 4 6 6 6 7 7 7 8 8 10 12 13 14 13 11 11 12 12 11 11 11 11 11 11 11 11 10 10 10 10 10 10 10 10 10 10 10 10 10 10 10 11 11 11 12 12 12 13 13 14 14 15 15
12 12 12 11 10 10 12 13 13 13 12 12 12 13 12 11 11 11 11 10 9 8 6 5 5 4 3 4 2 1 2 3 4 5 5 5 7 8 9 9 7 8 11 12 13 14 12 11 11 11 11 11 11 12 13 13 13 12 12 12 11 11 11 11 11 11 11 10 10 10 10 10 11 11 11 12 12 13 13 13 14 15 16 17 16
11 11 11 10 9 10 11 12 11 11 12 11 12 13 12 12 12 12 11 9 9 8 6 6 6 4 3 3 3 2 3 3 3 5 4 3 5 6 8 10 8 7 10 11 12 13 12 11 11 11 10 10 10 11 12 13 13 13 12 12 12 12 12 12 12 12 11 11 11 11 11 11 11 12 12 13 13 14 14 14 14 15 16 16 16
11 11 10 9 9 9 9 10 10 10 11 12 13 13 12 12 12 11 9 8 7 6 6 7 6 4 3 1 2 3 3 3 1 3 4 3 4 5 6 9 10 10 10 11 11 11 12 12 12 12 10 8 9 10 11 11 12 13 13 13 13 13 13 13 13 12 12 12 12 12 12 12 12 13 13 14 14 14 14 13 13 14 15 15 15
9 10 8 8 8 9 9 9 8 9 10 12 12 12 11 12 11 10 8 8 7 5 4 4 6 6 1 1 2 3 4 4 2 1 2 3 4 5 6 8 10 11 11 11 11 12 12 12 13 12 9 7 8 10 11 11 11 12 14 15 15 15 14 14 13 12 12 12 12 12 12 12 13 13 13 13 13 13 12 12 12 13 14 15 16
7 8 8 8 8 9 9 9 8 9 9 10 10 10 11 12 10 9 8 9 8 6 4 3 6 7 1 1 1 1 4 5 3 1 1 2 4 5 6 8 9 10 11 10 11 12 12 13 13 12 9 8 8 10 11 11 11 12 14 15 15 15 15 14 12 12 11 11 11 11 11 12 12 12 12 12 11 11 11 11 13 14 15 16 18
7 7 7 8 8 8 9 9 9 9 8 8 8 8 11 12 11 10 9 9 7 6 5 5 7 6 2 2 1 1 5 6 5 4 2 2 2 4 5 6 8 9 10 9 9 10 12 13 13 12 10 9 10 11 11 11 11 12 14 15 14 15 14 13 13 12 11 11 11 11 11 11 11 11 10 10 10 11 11 13 14 15 17 18 19
8 7 7 7 7 7 8 8 9 9 7 7 8 9 11 12 11 11 9 8 7 6 7 7 6 5 3 2 2 3 4 5 4 4 4 3 2 0 2 3 6 7 8 8 7 8 9 10 11 12 12 10 10 11 11 11 12 13 15 15 14 15 15 14 13 12 12 12 12 11 11 11 11 11 11 11 11 12 13 14 15 16 17 18 19
8 6 6 6 7 7 7 7 8 9 7 7 9 9 10 10 11 11 8 6 6 6 5 5 5 6 5 3 2 2 3 4 3 2 3 3 2 2 3 2 3 4 5 6 7 8 7 8 8 10 13 12 11 11 10 11 13 14 15 16 16 16 15 14 13 13 13 13 12 12 12 12 12 12 12 12 13 13 14 14 14 15 16 16 18
7 6 6 6 7 7 7 7 8 9 7 7 8 9 9 10 11 10 7 6 6 5 4 3 4 5 4 2 2 2 2 3 3 3 1 1 1 2 3 3 2 3 4 4 5 6 6 6 6 8 12 13 12 12 12 12 12 13 15 16 17 16 14 13 13 13 14 13 13 13 13 13 13 13 13 13 13 13 13 14 14 14 15 16 17
7 7 6 6 6 7 7 7 8 8 8 8 9 9 11 11 11 10 7 7 7 6 4 3 4 4 3 2 1 1 1 2 3 2 0 2 1 1 2 1 1 2 5 4 3 3 4 4 5 7 11 13 13 14 14 12 11 12 14 16 17 15 13 12 13 13 13 13 13 13 12 12 12 12 12 12 12 13 14 14 15 15 15 16 17
8 7 7 6 6 6 6 7 7 8 9 9 10 10 11 11 11 10 8 7 7 5 4 4 6 6 4 3 1 0 0 2 2 2 1 2 2 1 0 1 0 1 3 4 3 2 3 4 5 7 10 12 13 15 14 11 10 12 14 16 16 14 12 12 12 12 13 12 12 12 11 11 11 11 11 12 13 13 14 15 15 15 15 15 16
9 8 7 7 6 7 7 7 8 9 9 9 10 11 11 11 11 10 8 8 7 6 5 6 7 7 5 4 2 2 1 2 3 2 1 0 1 2 2 2 1 2 3 4 3 2 2 5 7 6 8 12 14 16 15 11 10 11 13 15 14 12 12 12 12 12 12 12 12 11 11 11 11 11 11 12 14 15 15 15 15 15 14 15 16
8 8 8 7 6 7 8 8 9 10 10 10 11 11 11 12 12 11 9 9 8 7 7 6 6 6 4 3 3 3 2 0 2 2 2 0 1 1 3 4 3 1 1 2 2 3 4 5 6 6 8 13 16 17 15 11 10 10 12 14 13 11 12 13 12 12 12 12 12 12 12 12 12 13 13 14 15 16 16 16 15 15 15 15 17
8 7 7 7 6 6 7 8 9 10 10 11 11 11 11 11 12 11 10 10 10 9 8 7 6 5 4 4 4 4 3 2 1 1 2 2 3 2 2 2 3 2 0 1 1 2 4 4 6 7 9 13 16 18 15 10 9 10 12 14 13 11 12 14 14 13 13 13 14 13 13 13 14 14 15 15 16 16 17 16 15 15 15 16 17
7 7 7 7 6 6 7 8 9 9 9 10 11 11 9 9 10 10 10 10 11 11 10 9 7 5 5 5 5 5 3 3 2 2 2 2 3 3 0 2 3 2 3 1 2 2 3 4 6 7 8 11 16 19 14 10 10 10 12 14 14 12 11 13 15 15 16 16 16 15 14 14 14 15 16 16 16 16 17 16 16 16 16 17 19
6 7 7 7 7 7 8 8 9 9 9 10 10 9 8 7 8 9 9 10 12 12 10 9 7 5 5 5 5 5 2 1 2 2 3 3 3 3 1 3 4 2 2 2 1 2 2 4 6 7 8 10 14 17 12 8 10 11 13 15 15 14 12 12 14 15 17 19 20 19 17 16 15 15 16 16 16 16 17 17 16 16 17 18 20
7 8 8 8 7 8 8 9 10 9 9 10 9 8 9 9 8 8 8 10 12 12 10 9 7 6 7 6 5 5 3 1 1 1 3 4 3 3 1 2 4 3 1 3 4 2 3 5 7 7 7 8 12 16 11 9 11 12 13 15 16 15 13 12 13 14 17 20 21 22 20 19 18 18 17 16 16 17 17 17 17 17 17 18 21
8 9 9 9 8 9 9 9 9 9 9 10 10 9 8 9 8 8 8 9 10 10 9 9 8 7 8 6 5 5 3 2 1 2 3 4 4 4 3 2 2 4 4 3 5 4 4 5 5 5 5 7 12 14 10 11 14 14 13 14 15 15 14 13 13 14 17 19 21 22 22 21 21 20 19 18 18 18 18 18 18 18 18 19 21
9 9 9 9 9 9 9 8 9 9 9 9 9 9 8 8 8 8 9 9 9 9 9 10 10 9 9 7 6 5 2 3 3 3 4 5 6 6 5 5 4 4 5 5 5 5 5 5 5 5 4 8 13 13 12 14 16 16 15 14 14 14 13 12 12 13 16 18 20 21 21 22 22 21 21 20 19 19 19 19 18 19 19 19 21
9 8 9 8 9 10 9 8 9 9 9 8 8 8 8 8 8 8 9 10 9 9 9 10 11 10 10 8 7 6 3 5 5 3 4 5 7 7 7 7 6 5 5 5 5 5 3 4 5 5 4 8 11 12 13 15 16 17 17 16 14 15 13 12 12 13 15 17 18 19 20 21 21 21 21 21 21 20 20 20 19 19 20 20 21
9 9 9 8 8 10 9 8 8 8 8 8 8 9 9 8 9 9 9 9 9 9 10 11 11 10 11 10 10 9 7 7 6 4 3 5 6 7 8 9 8 6 5 4 5 3 2 2 3 3 3 7 8 8 11 14 15 17 17 16 16 16 14 12 12 13 14 15 17 17 18 19 20 21 21 21 21 21 21 21 21 20 21 21 22
11 9 9 8 8 10 9 8 8 8 8 8 8 9 9 10 9 9 9 9 9 9 10 10 10 11 11 10 10 11 10 9 8 6 5 7 8 9 10 10 8 7 6 6 6 4 3 1 1 3 4 5 6 6 8 11 13 16 17 16 17 18 16 13 12 13 13 14 15 15 16 17 19 20 20 19 20 21 21 21 21 22 22 22 22
12 10 9 10 9 10 10 9 9 9 8 8 8 8 9 10 10 9 9 10 9 9 10 10 10 11 11 9 9 12 12 11 11 9 8 8 9 10 11 10 9 8 7 8 8 7 6 5 4 5 6 8 8 8 8 10 11 13 16 16 17 19 17 14 14 14 13 14 13 13 15 16 18 18 18 18 19 20 20 21 21 22 24 24 22
13 11 10 10 10 10 10 10 10 10 10 9 9 9 9 9 9 9 9 10 10 10 10 10 11 11 10 9 9 10 10 11 13 12 10 10 9 8 8 8 8 7 6 8 10 10 8 8 8 8 9 11 11 11 11 11 11 12 14 16 18 20 18 15 14 15 14 15 13 12 14 16 16 17 17 17 18 19 20 21 21 21 23 25 25
14 13 11 10 11 10 10 11 11 11 11 11 10 10 10 9 10 10 9 10 11 10 10 11 11 11 10 10 9 8 9 10 13 13 12 11 9 6 5 6 5 5 5 7 9 10 8 9 11 11 11 12 12 13 13 12 12 13 15 17 19 20 18 15 15 15 14 14 13 13 14 14 15 16 16 16 17 19 20 20 21 21 21 24 26
14 15 14 12 11 11 10 12 12 11 11 12 11 11 11 10 10 10 10 11 11 11 11 11 11 12 12 12 11 10 10 11 11 13 12 12 10 5 4 5 6 6 7 8 10 11 8 8 10 11 11 12 12 13 14 14 14 15 16 17 17 16 15 15 16 16 14 13 13 14 15 15 14 15 15 16 17 18 20 20 21 21 20 22 25
15 16 17 15 14 13 13 13 13 13 12 11 11 12 12 12 11 11 11 11 11 11 12 12 11 12 13 14 12 11 11 11 10 11 12 12 12 9 7 6 6 7 8 9 11 13 12 10 10 11 12 14 14 13 13 14 14 14 14 14 12 11 12 14 15 15 13 12 12 15 18 18 16 15 15 15 17 18 20 21 21 21 19 20 23
16 17 17 17 17 16 15 14 13 13 14 13 12 12 12 12 12 12 13 12 12 12 12 12 11 11 13 14 13 11 11 11 11 9 9 10 11 13 11 8 7 6 7 9 10 13 15 15 14 15 16 17 15 13 12 12 11 12 13 12 10 10 11 12 14 14 12 11 13 16 19 21 20 17 15 16 17 18 20 21 21 20 19 19 21
17 17 17 18 18 19 19 18 15 14 14 14 14 14 13 12 12 13 14 14 14 13 13 12 11 11 12 13 13 13 12 12 12 10 9 8 9 12 13 12 10 9 8 8 10 12 15 17 18 19 19 17 14 12 11 11 11 13 14 13 11 10 10 11 14 14 14 14 15 16 19 22 23 21 18 17 17 18 20 21 20 19 18 19 20
17 18 18 18 18 19 19 19 18 16 15 15 15 15 14 13 13 13 14 15 15 14 14 14 14 13 13 13 13 13 13 13 12 12 12 11 10 11 12 13 13 12 11 11 12 13 15 19 20 20 18 16 15 13 12 13 14 14 14 13 11 11 11 12 14 16 17 17 18 18 19 21 24 24 22 19 18 19 20 21 19 17 17 18 20
18 19 20 20 19 19 18 18 18 18 18 17 16 16 15 15 14 14 15 15 16 16 15 14 14 14 14 14 13 14 14 14 13 13 13 12 12 12 12 12 13 15 15 15 16 16 18 20 20 19 17 16 16 15 14 15 17 17 17 15 13 13 13 14 14 16 17 19 20 19 20 22 24 26 25 21 19 19 20 21 19 16 16 18 19
20 20 21 22 22 21 19 18 17 16 17 18 18 18 18 17 17 17 16 16 16 16 16 15 15 14 14 14 14 14 14 15 14 13 13 12 12 12 12 11 11 12 13 14 15 16 17 18 19 19 18 17 17 17 16 17 18 19 18 18 17 16 15 15 15 16 18 20 21 21 21 23 25 28 27 23 19 19 20 20 19 16 15 17 19
21 21 21 22 24 23 21 19 17 15 15 16 18 19 20 20 20 20 19 18 17 17 17 16 16 16 15 15 15 14 14 14 14 13 13 12 12 11 10 10 11 12 13 14 14 15 17 18 19 19 19 19 19 19 18 18 19 19 19 20 21 20 18 18 19 19 20 21 22 22 22 24 26 29 28 24 20 19 20 19 18 16 15 16 18
23 23 22 22 24 25 23 21 19 17 16 16 15 16 18 20 22 23 23 22 21 20 20 18 18 17 17 17 16 15 15 16 16 16 15 13 11 10 10 11 13 15 16 16 17 18 19 20 21 21 21 22 21 20 20 20 21 21 21 22 24 23 23 23 23 23 23 23 23 23 24 25 28 29 27 23 21 20 19 18 17 16 15 15 16
22 24 24 23 24 26 25 24 22 20 19 17 15 15 15 15 17 20 23 24 24 24 23 22 21 20 19 19 17 16 16 17 17 17 17 14 13 13 13 14 15 17 18 19 20 20 21 21 21 21 22 22 21 21 23 23 23 24 24 24 25 25 26 27 27 25 24 24 25 25 26 28 29 29 25 23 21 20 18 16 15 16 15 15 15
21 21 22 23 24 25 26 25 23 22 22 20 18 16 15 15 15 16 18 21 23 24 25 25 25 24 23 22 21 19 18 17 17 18 17 17 16 16 16 17 18 18 19 21 22 22 22 23 23 23 24 25 24 24 24 25 25 26 25 25 25 26 27 29 29 26 23 24 27 28 29 29 29 27 24 22 21 19 16 14 15 16 15 14 14
24 21 18 20 24 25 26 26 24 24 24 24 23 22 21 19 18 17 17 17 18 19 21 22 23 24 25 25 25 25 23 21 20 19 19 19 18 18 19 20 21 21 21 22 24 24 25 26 26 26 27 27 27 26 26 27 27 26 25 23 23 24 25 26 27 26 23 24 28 30 29 27 27 25 23 21 19 16 14 13 14 15 15 14 13
26 24 19 19 23 26 27 27 26 25 24 25 25 25 24 23 22 21 21 20 19 18 18 18 18 19 21 22 23 25 25 24 23 23 23 22 22 22 22 23 23 23 23 24 25 26 27 28 29 29 28 28 29 28 27 28 29 28 25 23 21 21 22 23 24 24 23 23 26 28 27 24 23 23 23 20 18 15 14 13 13 14 15 14 13
25 25 22 21 23 26 28 27 26 26 25 24 24 24 25 24 24 24 24 24 23 22 21 20 19 19 19 19 20 21 21 22 23 24 24 25 25 25 26 26 26 26 26 26 27 27 27 28 29 30 30 30 30 30 29 30 31 29 27 24 21 20 22 23 24 24 22 21 23 26 26 23 21 23 23 20 18 17 15 14 13 13 14 14 13
23 24 23 23 24 26 28 28 27 26 25 25 24 24 24 23 23 24 24 23 24 25 25 24 23 23 23 23 24 23 22 22 22 22 23 24 25 25 26 27 27 27 28 28 28 29 29 30 31 32 32 32 32 33 32 31 32 31 29 27 25 24 25 25 25 25 23 21 21 25 26 24 22 23 22 19 18 17 16 15 14 13 13 14 14
20 22 22 22 24 27 28 29 29 29 28 27 26 25 24 23 22 22 23 23 23 25 26 26 26 26 25 26 27 27 27 26 25 23 23 24 25 26 27 28 28 29 30 29 30 30 31 32 33 34 34 34 34 35 34 33 33 32 31 31 29 27 27 28 28 26 23 21 21 25 28 25 21 22 21 18 17 17 15 14 14 13 14 15 15
18 20 21 21 22 25 28 30 31 31 31 31 29 28 27 26 26 27 28 28 29 29 30 29 29 28 27 26 27 28 29 29 28 27 26 26 27 28 29 30 31 33 33 33 33 34 35 36 37 37 38 38 38 37 36 34 33 32 32 33 31 29 29 31 31 29 26 23 22 25 28 24 20 20 21 19 17 17 16 13 13 13 14 14 15
17 18 20 21 20 22 26 29 31 32 33 33 31 31 31 31 32 34 34 35 36 36 36 35 35 34 32 30 28 28 30 29 29 29 28 29 31 31 32 33 34 36 36 35 35 36 37 38 39 39 39 39 38 36 34 32 31 30 32 33 31 30 31 32 32 31 30 26 22 23 26 24 20 21 21 20 18 17 15 14 13 13 13 13 14
15 15 16 18 19 19 21 25 28 30 31 32 32 33 33 33 34 35 36 38 38 38 38 38 38 38 38 36 34 32 32 33 32 31 30 31 33 34 34 35 37 38 36 34 35 35 35 35 35 35 35 33 32 32 31 29 28 29 31 32 30 29 31 32 31 32 33 28 22 23 27 26 23 21 20 21 21 19 16 15 15 14 14 14 15
Wind_Direction
135 134 132 130 130 130 129 129 129 129 129 127 127 124 124 126 127 124 119 116 107 97 100 109 107 100 95 55 45 57 64 56 48 54 69 78 85 88 90 88 85 79 74 68 63 63 60 62 62 57 56 52 48 44 39 34 27 20 13 5 357 350 344 341 335 329 325 324 325 328 332 332 333 332 332 332 333 332 327 324 318 314 308 302 301
142 141 138 135 134 134 131 131 131 131 130 130 132 130 127 124 123 121 122 123 125 117 101 103 102 81 72 55 57 69 68 58 47 49 68 78 81 84 82 77 74 69 66 63 60 62 62 63 62 57 55 52 48 45 41 36 32 28 24 19 12 6 360 354 344 337 333 336 338 343 347 349 349 347 348 347 345 345 342 337 333 329 323 318 313
145 146 143 141 139 136 133 131 132 134 133 133 134 133 128 122 116 112 117 124 135 151 133 112 113 81 62 47 46 53 53 54 45 42 52 67 72 74 74 70 69 69 67 67 66 67 66 64 62 58 56 53 51 47 44 41 37 35 31 25 21 15 9 3 354 351 349 351 351 353 357 355 355 356 357 356 353 353 351 348 344 340 335 330 326
149 151 146 144 142 137 134 132 134 139 139 137 134 131 126 120 119 118 126 133 131 143 147 129 127 101 66 40 28 34 41 49 44 40 39 42 64 75 74 70 71 73 73 73 70 68 65 62 59 56 54 51 50 48 45 43 38 35 30 23 19 13 8 6 2 2 2 3 2 1 1 0 1 3 3 3 1 360 358 355 352 347 341 335 332
152 153 150 145 142 138 136 136 138 143 144 139 132 131 129 123 122 125 133 138 130 127 132 135 148 146 92 33 9 23 36 48 41 32 31 31 54 75 76 73 73 73 73 73 70 67 64 59 56 52 51 49 47 46 44 41 38 35 30 25 21 16 13 12 11 12 12 12 11 9 9 8 9 10 9 9 6 4 2 357 353 348 340 336 334
150 152 152 148 146 143 141 142 142 145 145 138 135 137 136 131 126 126 128 131 136 140 138 140 155 157 115 82 17 11 20 27 22 22 32 46 56 68 86 86 79 72 69 69 65 62 60 57 56 55 52 50 48 47 46 43 42 40 36 33 30 27 23 21 21 19 19 18 17 16 15 15 14 12 11 8 5 1 358 353 348 342 335 333 332
152 154 154 153 153 149 144 146 143 142 143 139 140 141 137 136 134 129 119 118 133 151 153 148 149 149 123 120 133 356 7 3 11 25 42 65 66 70 83 85 78 69 67 67 60 55 56 54 53 56 57 55 55 52 51 49 46 45 42 39 36 32 29 26 24 21 20 19 17 17 15 14 12 10 7 1 358 353 350 346 341 336 331 329 329
162 159 157 157 156 150 146 147 144 141 142 142 144 145 143 144 140 131 122 118 130 145 149 155 156 143 123 143 179 300 345 353 22 30 37 67 73 75 73 68 68 65 63 62 56 53 55 52 47 51 56 59 61 56 54 51 47 45 42 39 35 30 26 21 18 15 14 11 10 9 7 5 2 359 356 351 348 345 342 339 335 330 327 326 326
171 163 157 156 153 149 149 150 152 149 146 151 154 152 151 148 139 131 132 133 136 142 145 157 169 150 123 146 190 227 283 315 19 24 29 65 74 75 67 62 64 63 59 57 55 53 51 47 44 48 51 58 62 58 54 49 43 39 34 31 25 20 14 9 4 0 359 357 356 355 353 352 349 347 344 341 338 336 334 331 329 325 323 323 321
173 163 156 156 157 157 159 162 163 159 158 164 166 163 159 151 142 138 144 147 143 146 151 157 168 159 129 177 220 204 243 276 337 13 31 66 66 68 71 68 66 61 58 56 55 54 49 40 38 44 47 53 61 58 53 45 37 30 24 19 14 9 3 357 351 346 342 340 339 338 339 338 336 335 332 331 330 328 327 324 323 320 319 320 318
170 160 160 161 163 168 174 179 176 171 173 174 172 172 169 156 149 150 150 149 143 140 144 158 173 171 126 317 233 203 221 238 250 340 27 60 66 72 81 78 66 58 57 58 56 52 48 39 36 42 47 50 56 53 47 38 29 21 14 9 5 2 357 352 347 341 336 330 327 325 324 324 324 325 324 324 324 323 323 320 320 317 317 318 317
173 164 172 173 170 175 181 188 190 186 181 177 176 176 172 162 156 157 152 149 144 134 123 125 164 171 141 17 210 205 195 204 210 191 55 75 82 76 80 76 61 55 56 59 58 52 48 41 39 46 51 55 54 46 40 32 23 13 6 2 360 358 355 353 349 347 342 336 331 326 323 321 320 321 321 323 323 323 322 319 318 316 316 316 315
187 182 183 181 176 179 186 188 191 191 185 183 182 176 171 165 160 157 150 149 145 141 147 149 165 179 174 105 114 135 169 183 187 178 175 145 106 71 71 69 59 52 48 49 49 46 45 44 45 48 49 53 51 41 33 26 20 11 6 2 0 359 355 354 354 353 353 350 346 341 336 332 328 327 326 327 327 325 322 319 318 316 315 315 314
195 196 188 182 182 186 189 189 192 193 190 189 185 175 171 170 165 159 153 149 144 145 157 165 179 198 195 148 134 146 170 187 192 188 182 185 196 84 33 44 57 54 41 38 37 36 37 40 46 45 38 37 39 35 27 23 20 13 10 8 3 359 357 357 357 358 359 357 354 351 348 344 339 335 332 330 327 325 322 320 319 317 317 316 316
194 199 194 187 192 195 192 191 195 194 189 187 182 174 173 176 173 168 161 152 147 145 149 159 175 183 187 187 195 206 209 210 212 215 196 194 219 238 270 316 27 45 34 32 36 37 32 31 36 36 28 20 23 28 23 22 21 13 10 9 4 0 0 1 1 0 359 356 354 352 351 347 343 339 335 333 330 329 328 327 327 325 324 323 321
194 197 196 194 194 193 193 195 195 192 190 182 176 173 172 174 176 174 168 159 156 157 144 136 160 175 186 194 222 253 251 243 258 262 221 185 221 239 252 273 330 32 44 37 33 37 33 24 20 22 18 11 15 22 19 19 18 12 11 9 5 2 3 4 3 2 359 356 355 353 352 350 347 346 344 343 341 341 341 340 338 334 331 328 327
194 191 191 199 197 189 190 196 196 191 188 181 173 174 174 174 176 171 166 159 160 171 165 150 173 191 196 171 190 268 282 312 294 262 287 11 325 233 226 246 310 28 48 45 23 14 28 27 10 11 8 2 12 19 16 17 17 15 14 10 5 3 5 7 7 6 3 0 356 353 354 356 357 357 357 357 355 353 352 348 345 340 337 334 332
189 187 188 196 195 195 195 192 193 188 184 182 176 178 181 182 181 173 172 170 164 182 186 154 166 175 168 160 152 187 9 1 340 268 302 349 329 288 103 78 281 305 8 29 32 354 13 31 18 12 3 357 11 18 16 15 16 19 18 13 7 5 10 14 13 9 6 6 3 359 1 4 9 11 10 8 4 2 359 355 351 347 344 341 338
185 185 184 192 191 197 200 189 188 188 185 185 181 183 188 188 186 181 184 191 187 200 194 154 160 172 168 167 160 146 130 37 24 348 325 64 282 293 313 334 319 259 304 345 32 48 39 27 20 12 0 2 12 14 12 9 11 19 22 16 10 11 20 23 21 15 10 12 13 12 13 14 15 16 16 16 11 8 5 1 357 353 351 347 342
185 183 180 190 197 196 198 191 191 191 186 187 187 191 194 190 190 187 190 202 202 206 202 175 177 191 188 197 209 190 177 59 32 15 347 16 354 286 258 284 282 228 288 321 23 53 56 26 13 7 2 8 12 8 6 6 8 17 25 19 11 17 30 30 27 22 17 18 20 20 22 21 18 15 15 16 14 11 9 6 1 357 355 350 345
182 182 180 188 198 196 195 196 199 197 190 192 195 199 198 192 195 195 197 209 207 208 212 205 204 204 205 229 230 207 192 200 220 359 334 348 15 15 204 222 221 207 9 141 145 36 41 21 2 5 7 10 10 3 1 8 11 16 26 20 11 17 32 35 31 26 23 23 22 22 23 22 20 16 13 14 14 14 12 10 5 1 357 352 348
184 184 189 190 195 197 196 198 203 202 198 200 203 207 204 196 203 209 209 211 208 212 217 214 212 208 212 224 215 201 184 187 215 321 347 1 16 13 276 188 180 212 311 254 138 19 5 349 345 356 6 7 6 360 359 11 14 17 25 20 10 10 23 34 34 31 30 28 25 22 21 22 21 18 15 12 13 14 14 12 9 5 1 356 352
198 199 201 197 200 202 201 200 202 201 198 203 208 211 210 203 208 216 216 208 204 211 217 215 212 199 187 185 185 191 181 175 236 308 355 351 340 354 351 216 200 194 310 262 184 19 325 314 338 351 356 359 359 357 359 11 12 17 23 19 11 6 9 22 30 31 30 30 27 24 22 21 21 20 16 14 13 13 13 12 10 9 5 360 355
217 215 210 208 207 203 204 204 207 204 197 207 216 214 214 212 206 210 213 207 205 211 218 216 203 171 157 149 155 172 177 182 271 290 347 345 319 319 317 222 220 221 245 229 217 240 285 306 338 345 343 349 352 356 5 12 10 14 18 17 11 4 3 11 21 25 24 24 23 21 21 21 22 22 18 15 15 13 12 12 11 10 8 3 359
223 217 208 210 211 205 206 206 210 212 205 211 219 218 220 219 210 207 208 210 213 214 216 214 201 174 164 158 154 163 183 217 243 266 307 319 306 298 280 261 277 256 232 200 206 225 256 290 327 322 319 342 347 354 9 12 9 11 11 12 9 3 1 5 14 21 20 18 16 14 16 18 19 22 20 16 16 15 13 12 10 11 9 6 3
225 218 209 209 212 211 210 208 210 215 213 216 221 223 223 218 216 214 214 217 215 212 212 209 205 197 185 177 172 170 204 246 249 269 290 296 295 294 275 269 296 272 237 222 229 241 247 262 292 291 310 348 346 346 359 4 4 4 3 4 2 359 358 357 5 16 16 13 11 8 9 11 13 17 20 19 17 16 14 13 11 10 10 8 5
221 212 207 208 213 213 210 210 214 214 213 217 225 231 227 217 220 223 224 225 216 211 211 203 201 205 199 196 193 187 211 245 250 277 303 297 289 291 290 286 287 272 249 241 242 251 261 265 273 278 316 353 350 342 346 353 354 352 353 354 352 353 353 346 351 3 7 7 6 3 2 5 7 10 16 19 18 16 16 15 13 11 9 9 7
220 208 206 209 210 212 207 206 218 218 213 219 226 230 231 226 225 225 225 227 220 213 213 207 205 207 206 208 206 197 205 232 243 257 281 282 278 282 292 296 289 271 254 244 233 242 304 298 256 242 294 335 343 336 333 341 344 341 342 345 346 347 345 338 341 351 356 360 2 359 357 359 1 4 10 16 18 18 17 17 17 14 10 8 8
225 218 217 218 213 214 210 204 215 220 216 221 224 227 231 229 228 228 226 227 223 219 220 217 213 208 207 212 215 208 209 223 237 243 252 264 269 272 281 289 286 272 260 255 245 240 262 286 239 214 242 292 312 314 318 330 336 335 334 335 340 341 337 332 335 341 347 353 357 355 352 353 356 359 3 9 14 16 16 16 18 18 14 10 8
225 224 224 226 222 219 216 210 213 219 221 222 222 225 231 230 229 231 230 228 223 222 224 221 214 208 208 213 216 215 218 224 232 240 250 258 266 269 274 281 278 267 260 259 257 252 249 252 265 269 266 277 291 295 302 315 323 325 324 325 332 335 330 326 328 333 338 342 347 349 348 349 351 354 357 1 6 10 11 12 13 15 16 12 9
220 220 221 229 230 225 223 221 215 215 221 223 224 228 230 232 235 234 232 230 226 225 225 222 218 215 214 219 221 221 225 227 230 238 245 251 263 272 273 280 283 277 271 268 267 263 259 260 265 276 281 282 287 288 291 301 307 308 311 314 322 326 323 321 325 330 333 334 336 341 344 345 348 351 353 355 359 2 4 7 7 9 13 13 11
220 222 224 230 234 233 232 230 222 217 218 218 222 228 229 232 236 233 230 231 232 231 229 227 224 222 223 225 229 233 233 229 230 235 238 245 258 261 258 274 291 307 313 299 285 277 272 273 273 276 283 286 289 288 287 291 295 298 302 307 314 317 317 318 323 327 331 334 337 342 344 343 346 349 349 349 353 356 357 359 1 3 8 11 12
224 227 230 231 234 242 244 239 233 228 223 218 218 224 228 230 233 234 233 234 235 232 230 230 227 228 230 228 230 240 245 241 236 235 237 246 255 246 236 267 285 298 305 308 304 293 281 277 280 283 291 297 299 295 290 290 293 295 298 303 310 316 318 322 326 328 330 338 346 352 351 346 343 346 346 345 347 351 351 353 355 357 1 6 9
225 228 233 234 236 244 248 245 241 238 235 226 221 224 226 227 230 235 237 237 238 236 232 231 230 233 236 233 233 240 249 253 250 245 244 248 253 251 251 272 286 288 288 291 299 300 295 294 296 299 308 314 313 309 302 299 300 300 302 308 320 330 332 334 339 339 336 343 355 358 355 350 345 343 343 342 343 345 346 347 349 351 355 359 4
223 225 230 233 234 239 245 246 243 241 239 234 229 229 226 226 230 234 237 237 239 242 241 238 238 244 246 244 242 244 249 255 256 254 248 243 246 248 249 263 277 281 282 281 289 299 302 303 304 306 312 317 319 320 316 313 315 317 320 328 339 345 341 339 345 349 346 347 352 355 354 351 347 342 338 337 338 339 341 344 346 347 350 354 357
225 223 226 230 233 237 242 246 245 242 242 239 237 235 230 227 231 234 238 239 238 240 243 241 240 244 249 252 252 254 257 260 259 253 244 239 242 244 248 256 263 270 273 273 282 293 295 296 299 302 307 312 319 327 327 326 328 329 329 332 336 341 337 331 333 339 340 338 340 345 347 347 346 342 336 334 335 335 336 340 343 344 347 350 352
229 229 227 230 235 238 241 245 249 248 247 245 242 241 238 235 234 236 239 241 241 241 243 244 244 245 249 253 256 260 261 262 262 256 249 250 252 252 254 256 257 263 267 269 277 283 285 288 293 298 304 310 318 325 326 327 328 329 331 329 326 327 328 324 322 323 325 327 330 334 337 339 341 340 336 333 334 334 334 339 342 343 344 347 348
225 229 231 234 237 241 242 245 249 253 252 250 247 246 245 244 244 244 242 242 244 246 247 249 250 250 253 255 257 260 261 262 264 262 259 260 263 266 267 262 256 258 262 266 270 273 277 283 289 297 305 312 316 320 324 326 325 326 330 327 322 320 320 320 318 315 316 319 322 326 328 330 334 336 333 330 331 334 335 339 341 340 342 343 343
223 224 230 236 239 242 245 246 250 256 257 256 253 250 248 249 251 253 253 251 249 250 252 254 256 257 257 258 259 259 260 264 267 267 268 269 271 273 276 275 270 268 270 273 272 274 278 284 289 297 305 310 313 318 323 324 321 323 326 323 321 323 323 319 315 313 313 316 319 320 322 324 327 330 329 324 324 330 334 337 337 336 338 339 338
228 225 227 233 239 242 244 247 252 257 260 260 257 254 253 252 253 255 259 261 260 258 256 256 258 262 263 263 264 262 262 265 267 268 270 272 275 275 279 287 292 293 294 292 290 289 291 294 298 303 307 310 312 315 319 319 319 321 322 318 318 322 323 318 316 316 314 314 316 315 316 319 321 323 323 320 320 325 329 332 332 332 333 333 333
231 230 228 230 236 240 242 245 249 253 258 262 262 261 260 259 257 257 259 263 266 267 266 262 260 261 264 266 266 267 267 265 265 265 264 264 267 272 280 289 292 293 296 297 298 300 301 302 304 307 308 309 311 314 316 317 318 319 318 316 316 318 317 316 317 317 314 311 311 310 311 313 314 315 316 315 317 321 323 324 325 326 328 329 330
230 233 233 232 233 237 241 245 247 249 252 259 265 268 269 268 265 263 262 263 265 267 269 268 266 264 265 266 268 269 268 266 264 263 260 255 253 260 270 277 281 283 286 289 294 298 300 302 304 306 307 307 310 313 314 315 317 317 317 315 314 314 313 312 314 316 314 312 311 310 308 307 307 309 310 310 315 318 317 316 317 321 326 327 328
227 230 235 238 237 236 239 243 246 248 249 255 263 266 269 271 271 270 269 267 267 266 267 267 267 268 268 269 272 273 272 269 267 266 265 262 260 261 265 269 273 276 278 283 288 293 295 297 299 301 301 302 306 310 312 314 316 317 316 313 311 312 312 311 311 313 314 313 310 307 305 305 305 307 307 308 313 316 314 313 315 318 322 324 326
223 223 231 239 240 238 239 241 245 247 248 251 256 260 262 263 266 270 273 274 273 271 270 269 269 270 271 272 273 273 273 272 270 270 270 270 270 268 267 267 269 271 274 278 282 286 288 291 293 294 295 297 301 306 309 313 316 316 314 311 311 312 312 310 308 308 310 310 306 303 304 306 306 307 307 310 313 312 310 314 317 316 318 320 324
219 219 225 232 234 235 238 240 244 246 248 249 251 254 257 258 259 263 267 272 275 276 277 276 275 276 277 278 277 277 275 273 272 271 271 272 272 271 269 268 267 267 269 273 276 279 282 285 286 288 290 292 295 300 306 309 311 311 310 309 310 310 308 305 301 302 307 307 303 302 304 307 308 307 307 311 314 308 302 306 314 316 314 314 319
220 222 229 233 231 231 234 237 240 244 247 248 248 249 252 255 256 257 260 263 267 270 273 274 275 276 277 278 280 282 282 281 278 276 275 274 274 273 272 271 270 269 269 270 272 274 276 279 281 284 288 290 291 296 303 304 303 304 304 303 303 302 299 297 295 298 304 305 301 299 300 306 309 306 306 312 315 307 298 293 302 312 310 307 311
223 226 234 238 235 232 233 234 237 240 243 245 245 245 248 252 255 257 257 259 260 262 264 266 268 270 271 274 276 278 280 282 282 281 280 278 276 274 273 272 272 271 270 270 271 272 274 276 279 281 285 288 290 294 298 300 299 300 300 297 296 295 292 291 292 295 301 304 301 296 297 305 310 306 306 314 313 306 296 286 289 300 303 302 304
226 228 234 239 237 234 233 234 236 239 241 243 243 242 243 246 250 253 256 259 262 263 264 265 265 265 266 268 270 272 275 276 278 279 280 279 278 277 276 276 276 276 276 276 277 277 278 279 280 282 285 289 292 293 296 298 297 299 298 295 293 293 290 290 290 292 298 304 302 296 297 304 311 308 307 311 308 304 298 287 284 291 297 298 299
233 232 234 238 240 237 234 235 237 239 241 243 244 245 245 246 248 252 256 260 263 265 266 267 268 267 265 264 264 266 269 271 272 274 275 277 277 277 279 280 281 281 282 284 285 285 285 285 285 286 288 290 293 294 296 296 296 297 295 291 292 292 289 288 288 289 295 301 300 296 296 301 310 310 308 306 301 300 301 292 284 287 291 294 295
241 238 237 240 247 246 240 238 240 241 242 243 246 249 251 251 253 255 258 261 262 264 266 267 268 269 269 268 266 265 266 267 269 270 273 274 274 275 278 281 282 283 284 286 286 286 287 286 286 287 288 290 292 293 294 293 293 292 289 287 288 288 285 283 284 286 291 295 296 294 292 296 306 308 306 306 301 298 299 295 289 288 290 293 294
255 253 249 248 254 257 250 244 245 247 248 247 248 251 252 253 255 257 259 261 263 264 266 267 268 268 269 269 269 269 269 270 270 269 269 270 272 274 276 278 279 281 283 285 285 285 286 287 287 288 288 288 289 289 288 287 286 285 284 283 284 283 280 279 280 283 286 288 293 294 291 295 303 304 303 304 303 300 300 297 291 288 288 290 292